TimeCST,TemperatureF,Dew PointF,Humidity,Sea Level PressureIn,VisibilityMPH,Wind Direction,Wind SpeedMPH,Gust SpeedMPH,PrecipitationIn,Events,Conditions,WindDirDegrees,DateUTC
12:15 AM,41.0,33.8,76,30.19,10.0,SW,8.1,-,N/A,,Clear,220,2013-12-17 06:15:00
12:35 AM,41.0,33.8,76,30.19,10.0,SW,5.8,-,N/A,,Clear,220,2013-12-17 06:35:00
12:55 AM,41.0,33.8,76,30.19,10.0,SW,5.8,-,N/A,,Scattered Clouds,220,2013-12-17 06:55:00
1:15 AM,39.2,33.8,81,30.19,10.0,Calm,Calm,-,N/A,,Clear,0,2013-12-17 07:15:00
1:35 AM,39.2,33.8,81,30.20,10.0,SW,4.6,-,N/A,,Clear,220,2013-12-17 07:35:00
1:55 AM,39.2,33.8,81,30.20,10.0,SW,4.6,-,N/A,,Clear,230,2013-12-17 07:55:00
2:15 AM,37.4,33.8,87,30.20,10.0,SSW,5.8,-,N/A,,Clear,210,2013-12-17 08:15:00
2:35 AM,39.2,33.8,81,30.20,10.0,SW,3.5,-,N/A,,Clear,230,2013-12-17 08:35:00
2:55 AM,39.2,33.8,81,30.20,10.0,WSW,4.6,-,N/A,,Clear,240,2013-12-17 08:55:00
3:15 AM,39.2,33.8,81,30.21,10.0,WSW,5.8,-,N/A,,Clear,240,2013-12-17 09:15:00
3:35 AM,39.2,33.8,81,30.20,10.0,SW,5.8,-,N/A,,Clear,230,2013-12-17 09:35:00
3:55 AM,37.4,33.8,87,30.20,10.0,SW,5.8,-,N/A,,Scattered Clouds,230,2013-12-17 09:55:00
4:15 AM,37.4,33.8,87,30.20,10.0,SW,5.8,-,N/A,,Scattered Clouds,230,2013-12-17 10:15:00
4:35 AM,37.4,33.8,87,30.19,10.0,SW,5.8,-,N/A,,Scattered Clouds,220,2013-12-17 10:35:00
4:55 AM,37.4,33.8,87,30.19,10.0,SW,5.8,-,N/A,,Scattered Clouds,230,2013-12-17 10:55:00
5:15 AM,37.4,33.8,87,30.19,10.0,SW,3.5,-,N/A,,Scattered Clouds,220,2013-12-17 11:15:00
5:35 AM,33.8,33.8,100,30.19,10.0,SSW,5.8,-,N/A,,Scattered Clouds,210,2013-12-17 11:35:00
5:55 AM,33.8,33.8,100,30.19,10.0,SW,5.8,-,N/A,,Clear,220,2013-12-17 11:55:00
6:15 AM,37.4,33.8,87,30.20,10.0,WSW,4.6,-,N/A,,Clear,240,2013-12-17 12:15:00
6:35 AM,35.6,33.8,93,30.21,10.0,SW,3.5,-,N/A,,Clear,230,2013-12-17 12:35:00
6:55 AM,33.8,33.8,100,30.21,10.0,SW,6.9,-,N/A,,Clear,220,2013-12-17 12:55:00
7:15 AM,37.4,33.8,87,30.21,10.0,SW,4.6,-,N/A,,Clear,230,2013-12-17 13:15:00
7:35 AM,37.4,33.8,87,30.21,10.0,SW,4.6,-,N/A,,Clear,220,2013-12-17 13:35:00
7:55 AM,39.2,33.8,81,30.21,10.0,SW,5.8,-,N/A,,Clear,230,2013-12-17 13:55:00
8:15 AM,42.8,35.6,76,30.21,10.0,SW,5.8,-,N/A,,Clear,220,2013-12-17 14:15:00
8:35 AM,44.6,35.6,71,30.21,10.0,WSW,9.2,-,N/A,,Clear,250,2013-12-17 14:35:00
8:55 AM,46.4,35.6,66,30.21,10.0,WSW,12.7,18.4,N/A,,Clear,250,2013-12-17 14:55:00
9:15 AM,46.4,35.6,66,30.21,10.0,West,11.5,-,N/A,,Clear,260,2013-12-17 15:15:00
9:35 AM,50.0,37.4,62,30.21,10.0,West,10.4,16.1,N/A,,Clear,260,2013-12-17 15:35:00
9:55 AM,51.8,37.4,58,30.21,10.0,WSW,12.7,-,N/A,,Clear,250,2013-12-17 15:55:00
10:15 AM,51.8,37.4,58,30.21,10.0,West,16.1,20.7,N/A,,Clear,260,2013-12-17 16:15:00
10:35 AM,51.8,37.4,58,30.20,10.0,West,16.1,-,N/A,,Clear,260,2013-12-17 16:35:00
10:55 AM,53.6,37.4,54,30.18,10.0,WSW,16.1,21.9,N/A,,Clear,240,2013-12-17 16:55:00
11:15 AM,55.4,39.2,54,30.17,10.0,WSW,15.0,20.7,N/A,,Clear,250,2013-12-17 17:15:00
11:35 AM,55.4,39.2,54,30.16,10.0,WSW,18.4,21.9,N/A,,Clear,250,2013-12-17 17:35:00
11:55 AM,55.4,39.2,54,30.15,10.0,WSW,20.7,25.3,N/A,,Clear,250,2013-12-17 17:55:00
12:15 PM,57.2,39.2,51,30.14,10.0,WSW,16.1,20.7,N/A,,Clear,240,2013-12-17 18:15:00
12:35 PM,59.0,39.2,48,30.12,10.0,WSW,13.8,24.2,N/A,,Clear,240,2013-12-17 18:35:00
12:55 PM,59.0,41.0,51,30.12,10.0,West,16.1,19.6,N/A,,Clear,260,2013-12-17 18:55:00
1:15 PM,59.0,39.2,48,30.12,10.0,WSW,13.8,-,N/A,,Clear,250,2013-12-17 19:15:00
1:35 PM,59.0,39.2,48,30.11,10.0,WSW,15.0,23.0,N/A,,Clear,250,2013-12-17 19:35:00
1:55 PM,59.0,41.0,51,30.10,10.0,SW,15.0,23.0,N/A,,Clear,230,2013-12-17 19:55:00
2:15 PM,60.8,39.2,45,30.10,10.0,WSW,18.4,23.0,N/A,,Clear,240,2013-12-17 20:15:00
2:35 PM,60.8,39.2,45,30.10,10.0,West,16.1,25.3,N/A,,Clear,260,2013-12-17 20:35:00
2:55 PM,60.8,39.2,45,30.11,10.0,West,18.4,24.2,N/A,,Clear,260,2013-12-17 20:55:00
3:15 PM,60.8,41.0,48,30.11,10.0,West,13.8,19.6,N/A,,Clear,260,2013-12-17 21:15:00
3:35 PM,59.0,41.0,51,30.12,10.0,West,13.8,24.2,N/A,,Clear,260,2013-12-17 21:35:00
3:55 PM,59.0,41.0,51,30.12,10.0,West,13.8,21.9,N/A,,Clear,260,2013-12-17 21:55:00
4:15 PM,59.0,41.0,51,30.13,10.0,West,12.7,-,N/A,,Clear,270,2013-12-17 22:15:00
4:35 PM,55.4,41.0,58,30.14,10.0,West,11.5,-,N/A,,Clear,270,2013-12-17 22:35:00
4:55 PM,55.4,41.0,58,30.14,10.0,West,8.1,-,N/A,,Clear,270,2013-12-17 22:55:00
5:15 PM,53.6,41.0,62,30.14,10.0,West,8.1,-,N/A,,Scattered Clouds,270,2013-12-17 23:15:00
5:35 PM,51.8,41.0,67,30.14,10.0,West,6.9,-,N/A,,Clear,270,2013-12-17 23:35:00
5:55 PM,51.8,41.0,67,30.14,10.0,West,9.2,-,N/A,,Clear,270,2013-12-17 23:55:00
6:15 PM,51.8,41.0,67,30.15,10.0,West,8.1,-,N/A,,Clear,280,2013-12-18 00:15:00
6:35 PM,51.8,39.2,62,30.15,10.0,WNW,9.2,-,N/A,,Clear,290,2013-12-18 00:35:00
6:55 PM,51.8,39.2,62,30.15,10.0,WNW,9.2,-,N/A,,Clear,290,2013-12-18 00:55:00
7:15 PM,51.8,39.2,62,30.16,10.0,WNW,9.2,-,N/A,,Clear,290,2013-12-18 01:15:00
7:35 PM,51.8,39.2,62,30.17,10.0,NW,10.4,-,N/A,,Clear,310,2013-12-18 01:35:00
7:55 PM,51.8,39.2,62,30.17,10.0,NW,10.4,16.1,N/A,,Clear,320,2013-12-18 01:55:00
8:15 PM,50.0,39.2,66,30.18,10.0,NW,12.7,17.3,N/A,,Clear,320,2013-12-18 02:15:00
8:35 PM,50.0,37.4,62,30.18,10.0,NNW,13.8,19.6,N/A,,Clear,330,2013-12-18 02:35:00
8:55 PM,50.0,37.4,62,30.20,10.0,NW,10.4,-,N/A,,Clear,320,2013-12-18 02:55:00
9:15 PM,48.2,37.4,66,30.21,10.0,NNW,13.8,18.4,N/A,,Clear,330,2013-12-18 03:15:00
9:35 PM,46.4,35.6,66,30.23,10.0,NNW,11.5,-,N/A,,Clear,340,2013-12-18 03:35:00
9:55 PM,44.6,35.6,71,30.24,10.0,NNW,9.2,-,N/A,,Clear,340,2013-12-18 03:55:00
10:15 PM,44.6,35.6,71,30.25,10.0,North,9.2,-,N/A,,Clear,350,2013-12-18 04:15:00
10:35 PM,44.6,33.8,66,30.25,10.0,North,6.9,-,N/A,,Clear,10,2013-12-18 04:35:00
10:55 PM,42.8,33.8,70,30.26,10.0,North,5.8,-,N/A,,Clear,360,2013-12-18 04:55:00
11:15 PM,42.8,32.0,66,30.26,10.0,North,9.2,-,N/A,,Clear,350,2013-12-18 05:15:00
11:35 PM,41.0,32.0,70,30.26,10.0,North,8.1,-,N/A,,Clear,350,2013-12-18 05:35:00
11:55 PM,41.0,32.0,70,30.26,10.0,North,6.9,-,N/A,,Scattered Clouds,350,2013-12-18 05:55:00